Cortez, CO

5:48 AM MST on December 04, 2016 (GMT -0700)
Cortez Municipal

Weather History for KCEZ - April, 2013

Change the Weather History Date:

Tuesday, April 2, 2013

  Actual Average Record
Temperature  
Mean Temperature 44 °F 43 °F  
Max Temperature 60 °F 60 °F 73 °F (2002)
Min Temperature 27 °F 27 °F 12 °F (2009)
Degree Days  
Heating Degree Days 21 22  
Month to date heating degree days 35 44  
Since 1 July heating degree days 5633 5574  
Cooling Degree Days 0 0  
Month to date cooling degree days 0 0  
Year to date cooling degree days 0 0  
Moisture  
Dew Point 20 °F    
Average Humidity 47    
Maximum Humidity 69    
Minimum Humidity 25    
Precipitation  
Precipitation 0.00 in 0.03 in 0.24 in (2004)
Month to date precipitation T 0.07  
Year to date precipitation 2.51 3.15  
Sea Level Pressure  
Sea Level Pressure 29.89 in    
Wind  
Wind Speed 8 mph (NE)    
Max Wind Speed 25 mph    
Max Gust Speed 31 mph    
Visibility 10 miles    
Events      
T = Trace of Precipitation, MM = Missing Value Source: NWS Daily Summary

Daily Weather History Graph

Daily Weather History Graph

Search for Another Location

Airport or City:

Trip Planner

Search our weather history database for the weather conditions in past years. The results will help you decide how hot, cold, wet, or windy it might be!

Date:

Astronomy

Apr. 02, 2013 Rise Set
Actual Time 6:58 AM MDT 7:38 PM MDT
Civil Twilight 6:31 AM MDT 8:04 PM MDT
Nautical Twilight 6:00 AM MDT 8:35 PM MDT
Astronomical Twilight 5:29 AM MDT 9:07 PM MDT
Moon 1:40 AM MDT (4/2) 11:57 AM MDT (4/2)
Length of Visible Light 13h 32m
Length of Day
12h 40m
Waning Gibbous, 55% of the Moon is Illuminated
Apr 2
Waning Gibbous
Apr 2
Last Quarter
Apr 10
New
Apr 18
First Quarter
Apr 25
Full

Hourly Weather History & Observations

Time (MDT) Temp. Windchill Dew Point Humidity Pressure Visibility Wind Dir Wind Speed Gust Speed Precip Events Conditions
12:53 AM 46.9 °F - 12.9 °F 25% 29.82 in 10.0 mi Calm Calm - N/A   Clear
1:53 AM 41.0 °F 36.4 °F 12.9 °F 32% 29.83 in 10.0 mi East 6.9 mph - N/A   Clear
2:53 AM 37.9 °F 32.1 °F 16.0 °F 41% 29.84 in 10.0 mi NE 8.1 mph - N/A   Clear
3:53 AM 33.1 °F 25.5 °F 17.1 °F 52% 29.84 in 10.0 mi NE 9.2 mph - N/A   Clear
4:53 AM 30.9 °F 27.5 °F 17.1 °F 57% 29.84 in 10.0 mi NE 3.5 mph - N/A   Clear
5:53 AM 27.0 °F 20.5 °F 15.1 °F 61% 29.88 in 10.0 mi East 5.8 mph - N/A   Clear
6:53 AM 28.0 °F 20.8 °F 17.1 °F 63% 29.89 in 10.0 mi ENE 6.9 mph - N/A   Clear
7:53 AM 32.0 °F 28.7 °F 18.0 °F 56% 29.91 in 10.0 mi NE 3.5 mph - N/A   Clear
8:53 AM 43.0 °F 40.3 °F 21.0 °F 42% 29.90 in 10.0 mi Variable 4.6 mph - N/A   Clear
9:53 AM 48.9 °F - 21.9 °F 35% 29.87 in 10.0 mi West 4.6 mph - N/A   Clear
10:53 AM 55.0 °F - 21.9 °F 28% 29.84 in 10.0 mi South 12.7 mph - N/A   Clear
4:53 PM 55.0 °F - 24.1 °F 30% 29.87 in 10.0 mi WNW 17.3 mph 23.0 mph N/A   Mostly Cloudy
5:53 PM 52.0 °F - 21.9 °F 31% 29.91 in 10.0 mi SSW 6.9 mph - N/A   Clear
6:53 PM 51.1 °F - 24.1 °F 35% 29.91 in 10.0 mi West 11.5 mph - N/A   Scattered Clouds
7:53 PM 46.0 °F 43.1 °F 24.1 °F 42% 29.94 in 10.0 mi West 5.8 mph - N/A   Partly Cloudy
8:53 PM 41.0 °F - 23.0 °F 49% 29.93 in 10.0 mi Calm Calm - N/A   Clear
9:53 PM 34.0 °F - 21.9 °F 61% 29.96 in 10.0 mi Calm Calm - N/A   Clear
10:53 PM 34.0 °F 31.0 °F 24.1 °F 67% 29.95 in 10.0 mi NE 3.5 mph - N/A   Clear
11:53 PM 33.1 °F - 24.1 °F 70% 29.96 in 10.0 mi Calm Calm - N/A   Clear